Simultaneous Nadir Overpasses (SNOs) Predictions

Prediction of SNOs between METOP-C and LANDSAT-8 Satellite Orbit:

Table of predicted SNOs for the next 14.0 days since TLE Epoch: 12/26/2020
Index Date (METOP-C) Time (METOP-C) Lat,Lon (METOP-C) SZA (METOP-C ) Date (LANDSAT-8) Time (LANDSAT-8) Lat,Lon (LANDSAT-8) SZA (LANDSAT-8 ) Distance(km) Time Diff (sec)
1 12/26/2020 15:45:54 -81.07, 162.54 73.77 12/26/2020 15:46:11 -81.08, 162.67 73.75 2.37 17
2 12/26/2020 16:36:33 81.11, -29.18 106.35 12/26/2020 16:35:36 81.11, -29.25 106.32 1.22 57
3 12/29/2020 11:20:18 -81.07,-131.27 73.98 12/29/2020 11:20:26 -81.07,-131.09 73.96 3.27 8
4 12/29/2020 12:10:56 81.10, 36.96 106.13 12/29/2020 12:09:50 81.09, 36.97 106.11 0.50 66
5 01/01/2021 06:04:01 81.05, 127.44 105.75 01/01/2021 06:05:13 81.05, 127.49 105.78 0.79 72
6 01/01/2021 06:54:39 -81.08, -64.36 74.15 01/01/2021 06:54:39 -81.08, -64.52 74.18 2.94 0
7 01/01/2021 07:44:38 81.32, 119.44 107.76 01/01/2021 07:43:25 81.75, 118.93 107.93 48.20 73
8 01/04/2021 01:38:24 81.05,-166.09 105.46 01/04/2021 01:39:27 81.06,-166.01 105.49 1.38 63
9 01/04/2021 02:29:02 -81.09, 2.17 74.44 01/04/2021 02:28:53 -81.08, 2.01 74.46 2.91 9
10 01/06/2021 21:12:47 81.06, -99.64 105.11 01/06/2021 21:13:41 81.06, -99.54 105.14 1.66 54



Historial Predications of SNOs between METOP-C and LANDSAT-8
